User: anonymous   Login
Location: Unspecified
(34.8840°S, 56.1820°W)
Time: 20:21:37
(UTC+00:00)
Language:

LANDSAT 8 - Orbit

View from above orbital plane
View from above orbital plane
View from above satellite
View from above satellite

Ground track
Ground track

The orbit data is extracted from the following two-line orbital elements,

1 39084U 13008A   19236.37305256  .00000029  00000-0  16466-4 0  9996
2 39084  98.2203 305.4935 0001419  87.3631 272.7733 14.57107790347299
Epoch (UTC): 24 August 2019 08:57:11
Eccentricity: 0.0001419
inclination: 98.2203°
perigee height: 701 km
apogee height: 703 km
right ascension of ascending node: 305.4935°
argument of perigee: 87.3631°
revolutions per day: 14.57107790
mean anomaly at epoch: 272.7733°
orbit number at epoch: 34729

The dashed part of the orbit path shows where the satellite is in the earth's shadow,  

DLR